FLOCK 4H 32

导读

FLOCK 4H 32是由美国发射的一颗商业遥感卫星,隶属于行星实验室(Planet Labs)Flock系列卫星星座,于2025年11月28日完成发射入轨。该卫星延续了Flock星座高重访频率、高分辨率对地观测的特点,将为农业监测、城市规划、灾害评估、环境监测等领域提供持续的遥感数据服务,进一步补充完善 Planet Labs全球 daily 观测能力,助力商业航天遥感应用落地。

Basic Information
目录编号:
66735
目录名称:
FLOCK 4H 32
国际标识:
2025-276BX
轨道中心:
EARTH
卫星名称:
FLOCK 4H 32
卫星全名:
FLOCK 4H 32
卫星状态:
在轨 (已飞行281 天)
发射日期:
2025-11-28 UTC
国别 :
美国 (US)
星等 :
--
Orbit Information
数据来源 国际轨道数据
星历时间: 2026-09-05T11:15:54+0800
14小时前
查看轨道信息
半长轴: 6882.158km
偏心率: 0.0006244
轨道倾角: 97.416°
近地点辐角 91.163°
升交点赤经 320.397°
平近点角 269.032°
近地点: 499.723km
远地点: 508.319km
周期: 94.699分钟
每日圈数: 15.206031
Detailed Information
使用方式:
暂无
2D Orbit Map
3D Orbit Map
Orbit Altitude Analysis Chart
Orbit Inclination Analysis Chart
Orbit Comprehensive Analysis Chart
View Comprehensive Chart
Conjunction Data List
Event ID Objects TCA Miss Dist (km) Collision Risk Probability Collision Risk Index (CRI) Action
CDM_260907-013706-342906-673522
HJS-6B (63429)
2026-09-07T
01:37:45+0000
1.258 km
极远距离
8.884553E-6 低风险 0.54
CDM_260907-105606-673506-677121
2026-09-07T
10:56:04+0000
1.295 km
极远距离
1.171532E-6 低风险 0.36